Location: Gad�tanya
(48.0500°N, 20.8500°E)
Time: 11:53:47
(UTC+00:00)

ATLAS 5 CENTAUR R/B - Pass Details

Date: 05 July 2020
Orbit: 534 x 1124 km, 63.4° (Epoch: 09 August)

Event Time Altitude Azimuth Distance (km) Brightness Sun altitude
Rises 21:07:19 0° 254° (WSW) 2,756 5.0 -16.2°
Reaches altitude 10° 21:09:39 10° 266° (W) 1,915 4.3 -16.3°
Maximum altitude 21:13:26 29° 328° (NNW) 1,162 3.7 -16.6°
Drops below altitude 10° 21:17:43 10° 29° (NNE) 2,177 4.9 -16.8°
Sets 21:20:32 0° 40° (NE) 3,209 5.7 -17.0°
